Flag for U.S.A. Weather past 2 weeks in Newport News, Virginia, U.S.A.

Now
92 °F

Sunny.


Feels Like: 101 °F
Forecast: 76 / 91 °F
Wind: 14 mph from Southwest

Location: Newport News / Williamsburg International Airport

Current Time: Aug 4, 2015 at 2:27:16 PM

Latest Report: Aug 4, 2015 at 1:54 PM


Visibility: 10 mi

Pressure: 29.94 "Hg

Humidity: 54%

Dew point: 73 °F

Location of Newport NewsLocation

Historic Weather in Newport News — Graph

°F

Newport News temperature yesterday

Maximum temperature yesterday: 91 °F (at 2:54 PM)
Minimum temperature yesterday: 66 °F (at 5:04 AM)
Average temperature yesterday: 80 °F

Past Weeks' High & Low Weather Summary

 TemperatureHumidityPressure
High93 °F (Jul 20, 3:54 PM)100% (Aug 3, 4:01 AM)30.05 "Hg (Aug 3, 4:01 AM)
Low62 °F (Jul 26, 5:54 AM)36% (Jul 25, 2:54 PM)29.62 "Hg (Jul 21, 3:54 PM)
Average80 °F71%29.92 "Hg
* Reported Jul 20 12:54 PM — Aug 4 12:54 PM, Newport News, Weather by CustomWeather, © 2015

Note: Actual official high and low records may vary slightly from our data, if they occured in-between our weather recording intervals... More about our weather records

Advertising

Newport News weather history for previous 24 hours

 ConditionsComfort  
Time TempWeatherWind HumidityBarometerVisibility
12:54 PM
Tue, Aug 4
90 °FSunny.14 mph57%29.95 "Hg10 mi
11:54 AM90 °FPassing clouds.16 mph59%29.97 "Hg10 mi
10:54 AM85 °FPartly sunny.9 mph70%29.98 "Hg10 mi
9:54 AM83 °FPassing clouds.15 mph74%29.97 "Hg10 mi
8:54 AM81 °FSunny.13 mph79%29.97 "Hg10 mi
7:54 AM79 °FSunny.15 mph84%29.97 "Hg10 mi
6:54 AM77 °FPassing clouds.10 mph88%29.97 "Hg9 mi
5:54 AM76 °FPassing clouds.8 mph91%29.97 "Hg10 mi
4:54 AM76 °FClear.13 mph88%29.93 "Hg10 mi
3:54 AM76 °FPassing clouds.13 mph88%29.92 "Hg10 mi
2:54 AM77 °FClear.13 mph88%29.91 "Hg10 mi
1:54 AM78 °FClear.14 mph84%29.92 "Hg10 mi
12:54 AM79 °FClear.12 mph84%29.91 "Hg10 mi
11:54 PM
Mon, Aug 3
80 °FClear.14 mph85%29.91 "Hg10 mi
10:54 PM81 °FClear.9 mph82%29.90 "Hg10 mi
9:54 PM80 °FClear.9 mph85%29.90 "Hg10 mi
8:54 PM76 °FSunny.No wind80%29.88 "Hg10 mi
7:54 PM81 °FThunderstorms. Passing clouds.8 mph67%29.87 "Hg10 mi
6:54 PM88 °FSunny.7 mph59%29.85 "Hg10 mi
5:54 PM88 °FSunny.5 mph57%29.87 "Hg10 mi
4:54 PM84 °FBroken clouds.8 mph63%29.87 "Hg10 mi
3:54 PM90 °FScattered clouds.10 mph50%29.86 "Hg10 mi
2:54 PM91 °FSunny.13 mph50%29.88 "Hg10 mi
Weather by CustomWeather, © 2015

See weather overviewHow to use our weather pages